Погода в Банджармасине

Индонезия     3°19′04″S   114°35′51″E
темп.,
°C
ветер,
м/с
пор.,
м/с
влажн.,
%
обл.,
%
осадки,
мм/ч
давл.,
гПа
погр.,
м
15 августа, пн
пн1523:00+24ююв158898 0.0 1011123
02:00+23ююв1491100 0.0 1009100
05:00+23юв119246 0.0 100912
08:00+26всв018197 0.1 1010162
11:00+32ссв125570 0.1 10101162
14:00+32юв2255100 0.6 10071597
17:00+26юв1388100 3.7 100767
20:00+25вюв1193100 4.2 101011
16 августа, вт
вт1623:00+24юв119621 0.0 101111
02:00+23вюв1197100 0.0 101013
05:00+23вюв1196100 0.0 100916
08:00+25в1290100 0.0 1011166
11:00+31вюв235621 0.0 10111348
14:00+34ю224472 0.0 10072175
17:00+29ююз256819 0.0 1007357
20:00+26ююв1380100 0.0 100965
17 августа, ср
ср1723:00+25вюв2985100 0.0 1011316
02:00+24вюв1189100 0.0 100931
05:00+23в119298 0.0 100912
08:00+26в127857 0.0 1011214
11:00+31вюв235595 0.0 10111302
14:00+35ююв134124 0.0 10082378
17:00+29ююз376446 0.0 1007589
20:00+25вюв128620 1.3 101050
18 августа, чт
чт1823:00+23всв11945 1.2 101118
02:00+23вюв139690 1.4 100983
05:00+23юв1294100 0.0 100978
08:00+25юв0189100 0.0 1011103
11:00+32вюв135322 0.0 10101502
14:00+34юв243936 0.0 10062506
17:00+30юв275942 0.0 1006599
20:00+25вюв268015 0.0 1008207
19 августа, пт
пт1923:00+25вюв2108341 0.0 1009522
02:00+24вюв27856 0.0 1008277
05:00+23юв129116 0.0 100853
08:00+26вюв277893 0.0 1010396
11:00+32вюв345270 0.0 10091733
14:00+28ю367299 0.5 1006239
17:00+30ююв256867 0.8 1005654
20:00+25юв278777 0.9 1008216